Location: Unspecified
(55.7024°N, 37.6611°E)
Time: 23:46:34
(UTC+03:00)

A-11 Canister half - All Passes

Search period start: 17 June 2025 00:00
Search period end: 27 June 2025 00:00
Orbit: 1524 x 1684 km, 47.3° (Epoch: 17 June)

Date Brightness Start Highest point End Pass type
(mag) Time Alt. Az. Time Alt. Az. Time Alt. Az.
17 Jun - 09:50:52 10° SSE 09:54:47 13° SE 09:58:41 10° ESE daylight
17 Jun - 11:49:20 10° SSW 11:57:23 34° SSE 12:05:24 10° E daylight
17 Jun - 13:52:08 10° WSW 14:00:58 51° S 14:09:51 10° ESE daylight
17 Jun - 15:56:12 10° W 16:04:50 45° SSW 16:13:34 10° SE daylight
17 Jun - 18:01:04 10° W 18:08:04 25° SW 18:15:11 10° S daylight
18 Jun - 09:29:41 10° SSE 09:33:06 12° SE 09:36:31 10° ESE daylight
18 Jun - 11:27:40 10° SSW 11:35:39 33° SSE 11:43:36 10° E daylight
18 Jun - 13:30:23 10° WSW 13:39:13 50° S 13:48:04 10° E daylight
18 Jun - 15:34:25 10° W 15:43:04 46° SSW 15:51:50 10° SE daylight
18 Jun - 17:39:13 10° W 17:46:21 26° SW 17:53:35 10° SSE daylight
19 Jun - 09:08:36 10° SE 09:11:26 12° SE 09:14:15 10° ESE daylight
19 Jun - 11:06:01 10° SSW 11:13:55 32° SSE 11:21:47 10° E daylight
19 Jun - 13:08:38 10° WSW 13:17:28 50° S 13:26:17 10° E daylight
19 Jun - 15:12:38 10° W 15:21:19 47° SSW 15:30:05 10° SE daylight
19 Jun - 17:17:23 10° W 17:24:38 27° SW 17:31:59 10° SSE daylight
20 Jun - 08:47:43 10° SE 08:49:45 11° SE 08:51:47 10° ESE daylight
20 Jun - 10:44:21 10° SSW 10:52:12 31° SSE 10:59:58 10° E daylight
20 Jun - 12:46:52 10° WSW 12:55:42 50° S 13:04:30 10° E daylight
20 Jun - 14:50:51 10° W 14:59:34 47° SSW 15:08:21 10° SE daylight
20 Jun - 16:55:33 10° W 17:02:55 27° SW 17:10:22 10° SSE daylight
21 Jun - 08:27:43 10° SE 08:28:06 10° SE 08:28:27 10° ESE daylight
21 Jun - 10:22:43 10° SSW 10:30:28 30° SE 10:38:09 10° E daylight
21 Jun - 12:25:07 10° WSW 12:33:56 49° S 12:42:43 10° E daylight
21 Jun - 14:29:04 10° W 14:37:48 48° SSW 14:46:36 10° ESE daylight
21 Jun - 16:33:43 10° W 16:41:12 28° SW 16:48:45 10° SSE daylight
22 Jun - 10:01:05 10° SSW 10:08:45 29° SE 10:16:19 10° E daylight
22 Jun - 12:03:22 10° WSW 12:12:11 49° SSE 12:20:57 10° E daylight
22 Jun - 14:07:17 10° W 14:16:03 49° SSW 14:24:51 10° ESE daylight
22 Jun - 16:11:54 10° W 16:19:29 29° SW 16:27:07 10° SSE daylight
23 Jun - 09:39:27 10° SSW 09:47:01 28° SE 09:54:30 10° E daylight
23 Jun - 11:41:36 10° WSW 11:50:25 48° SSE 11:59:09 10° E daylight
23 Jun - 13:45:30 10° W 13:54:17 49° S 14:03:06 10° ESE daylight
23 Jun - 15:50:05 10° W 15:57:45 30° SW 16:05:29 10° SSE daylight
23 Jun - 17:59:48 10° WSW 18:00:08 10° SW 18:00:28 10° SW daylight
24 Jun - 09:17:50 10° SSW 09:25:18 27° SE 09:32:41 10° E daylight
24 Jun - 11:19:52 10° SW 11:28:40 47° SSE 11:37:22 10° E daylight
24 Jun - 13:23:42 10° W 13:32:32 50° S 13:41:21 10° ESE daylight
24 Jun - 15:28:15 10° W 15:36:02 31° SSW 15:43:51 10° SSE daylight
24 Jun - 17:36:25 10° WSW 17:38:28 11° SW 17:40:30 10° SW daylight
25 Jun - 08:56:13 10° SSW 09:03:35 27° SE 09:10:51 10° E daylight
25 Jun - 10:58:07 10° SW 11:06:54 47° SSE 11:15:36 10° E daylight
25 Jun - 13:01:55 10° W 13:10:46 50° S 13:19:35 10° ESE daylight
25 Jun - 15:06:26 10° W 15:14:18 32° SSW 15:22:12 10° SSE daylight
25 Jun - 17:13:58 10° WSW 17:16:47 12° SW 17:19:37 10° SW daylight
26 Jun - 08:34:37 10° SSW 08:41:52 26° SE 08:49:00 10° E daylight
26 Jun - 10:36:22 10° SW 10:45:09 46° SSE 10:53:48 10° E daylight
26 Jun - 12:40:08 10° W 12:49:01 50° S 12:57:50 10° ESE daylight
26 Jun - 14:44:37 10° W 14:52:34 33° SSW 15:00:32 10° SSE daylight
26 Jun - 16:51:42 10° WSW 16:55:07 12° SW 16:58:32 10° SSW daylight
